When you browse on this site, cookies collect data to enhance your experience and personalize the content and advertising you see.
Visit our Privacy Policy to learn more. By continuing to use the site, you agree to this use of cookies and data.
  • In Germany
  • List of Countries
  • For 7 days
  • Water Temperature
  • Satellite Maps
  • Weather Map
  • Weather Widgets
  • user-avatar
    Login

    Hourly Weather Punakha

    Today, 19 November, Monday

    Time Temperature Precipitation Wind Pressure Humidity
    00:00 +8°C° 0 mm 1 mps 581 mmHg 83%
    01:00 +8°C° 0 mm 1 mps 581 mmHg 82%
    02:00 +8°C° 0 mm 1 mps 581 mmHg 80%
    03:00 +7°C° 0 mm 1 mps 581 mmHg 78%
    04:00 +7°C° 0 mm 1 mps 581 mmHg 78%
    05:00 +7°C° 0 mm 1 mps 581 mmHg 77%
    06:00 +7°C° 0 mm 1 mps 581 mmHg 77%
    07:00 +10°C° 0 mm 1 mps 583 mmHg 68%
    08:00 +12°C° 0 mm 1 mps 584 mmHg 58%
    09:00 +15°C° 0 mm 2 mps 585 mmHg 49%
    10:00 +16°C° 0 mm 2 mps 585 mmHg 47%
    11:00 +17°C° 0 mm 3 mps 585 mmHg 45%
    12:00 +18°C° 0 mm 3 mps 586 mmHg 41%
    13:00 +17°C° 0 mm 3 mps 585 mmHg 45%
    14:00 +17°C° 0 mm 3 mps 584 mmHg 49%
    15:00 +16°C° 0 mm 3 mps 584 mmHg 53%
    16:00 +13°C° 0 mm 3 mps 583 mmHg 65%
    17:00 +12°C° 0 mm 2 mps 582 mmHg 76%
    18:00 +10°C° 0 mm 1 mps 581 mmHg 89%
    19:00 +9°C° 0 mm 1 mps 582 mmHg 87%
    20:00 +9°C° 0 mm 1 mps 582 mmHg 86%
    21:00 +9°C° 0 mm 1 mps 582 mmHg 84%
    22:00 +9°C° 0 mm 1 mps 582 mmHg 81%
    23:00 +8°C° 0 mm 1 mps 582 mmHg 79%

    Tomorrow, 20 November, Tuesday

    Time Temperature Precipitation Wind Pressure Humidity
    00:00 +8°C° 0 mm 1 mps 582 mmHg 76%
    01:00 +8°C° 0 mm 1 mps 582 mmHg 73%
    02:00 +8°C° 0 mm 1 mps 581 mmHg 71%
    03:00 +8°C° 0 mm 1 mps 581 mmHg 68%
    04:00 +8°C° 0 mm 1 mps 581 mmHg 67%
    05:00 +8°C° 0 mm 1 mps 581 mmHg 65%
    06:00 +7°C° 0 mm 1 mps 581 mmHg 63%
    07:00 +10°C° 0 mm 1 mps 583 mmHg 56%
    08:00 +12°C° 0 mm 1 mps 584 mmHg 50%
    09:00 +15°C° 0 mm 2 mps 585 mmHg 43%
    10:00 +16°C° 0 mm 2 mps 585 mmHg 42%
    11:00 +17°C° 0 mm 2 mps 585 mmHg 40%
    12:00 +18°C° 0 mm 3 mps 585 mmHg 39%
    13:00 +17°C° 0 mm 3 mps 584 mmHg 43%
    14:00 +17°C° 0 mm 3 mps 584 mmHg 47%
    15:00 +16°C° 0 mm 3 mps 583 mmHg 51%
    16:00 +14°C° 0 mm 2 mps 582 mmHg 63%
    17:00 +12°C° 0 mm 2 mps 581 mmHg 75%
    18:00 +9°C° 0 mm 1 mps 581 mmHg 87%
    19:00 +9°C° 0 mm 1 mps 581 mmHg 84%
    20:00 +9°C° 0 mm 1 mps 582 mmHg 80%
    21:00 +8°C° 0 mm 1 mps 582 mmHg 77%
    22:00 +8°C° 0 mm 1 mps 582 mmHg 73%
    23:00 +7°C° 0 mm 2 mps 582 mmHg 70%

    Day after tomorrow, 21 November, Wednesday

    Time Temperature Precipitation Wind Pressure Humidity
    00:00 +7°C° 0 mm 2 mps 582 mmHg 67%
    01:00 +7°C° 0 mm 2 mps 582 mmHg 61%
    02:00 +7°C° 0 mm 3 mps 582 mmHg 55%
    03:00 +7°C° 0 mm 3 mps 582 mmHg 49%
    04:00 +7°C° 0 mm 3 mps 582 mmHg 46%
    05:00 +5°C° 0 mm 3 mps 582 mmHg 42%
    06:00 +5°C° 0 mm 3 mps 582 mmHg 39%
    07:00 +9°C° 0 mm 3 mps 584 mmHg 33%
    08:00 +13°C° 0 mm 2 mps 586 mmHg 28%
    09:00 +16°C° 0 mm 2 mps 587 mmHg 22%
    10:00 +17°C° 0 mm 2 mps 588 mmHg 22%
    11:00 +18°C° 0 mm 2 mps 588 mmHg 21%
    12:00 +19°C° 0 mm 2 mps 588 mmHg 21%
    13:00 +19°C° 0 mm 3 mps 587 mmHg 26%
    14:00 +18°C° 0 mm 3 mps 586 mmHg 30%
    15:00 +18°C° 0 mm 3 mps 585 mmHg 35%
    16:00 +15°C° 0 mm 2 mps 584 mmHg 50%
    17:00 +12°C° 0 mm 2 mps 583 mmHg 64%
    18:00 +10°C° 0 mm 1 mps 582 mmHg 78%
    19:00 +10°C° 0 mm 1 mps 583 mmHg 72%
    20:00 +8°C° 0 mm 2 mps 583 mmHg 66%
    21:00 +8°C° 0 mm 2 mps 584 mmHg 59%
    22:00 +8°C° 0 mm 2 mps 584 mmHg 54%
    23:00 +8°C° 0 mm 2 mps 584 mmHg 48%

    22 November, Thursday

    Time Temperature Precipitation Wind Pressure Humidity
    00:00 +8°C° 0 mm 2 mps 584 mmHg 42%
    01:00 +8°C° 0 mm 2 mps 584 mmHg 38%
    02:00 +8°C° 0 mm 2 mps 583 mmHg 34%
    03:00 +8°C° 0 mm 2 mps 583 mmHg 30%
    04:00 +8°C° 0 mm 2 mps 583 mmHg 27%
    05:00 +8°C° 0 mm 2 mps 583 mmHg 25%
    06:00 +8°C° 0 mm 2 mps 584 mmHg 23%
    07:00 +12°C° 0 mm 2 mps 585 mmHg 22%
    08:00 +14°C° 0 mm 1 mps 587 mmHg 20%
    09:00 +18°C° 0 mm 1 mps 589 mmHg 19%
    10:00 +19°C° 0 mm 1 mps 589 mmHg 20%
    11:00 +20°C° 0 mm 2 mps 589 mmHg 21%
    12:00 +21°C° 0 mm 2 mps 589 mmHg 22%
    13:00 +20°C° 0 mm 2 mps 588 mmHg 27%
    14:00 +19°C° 0 mm 2 mps 587 mmHg 32%
    15:00 +19°C° 0 mm 3 mps 586 mmHg 37%
    16:00 +16°C° 0 mm 2 mps 585 mmHg 50%
    17:00 +14°C° 0 mm 2 mps 584 mmHg 63%
    18:00 +11°C° 0 mm 1 mps 584 mmHg 76%
    19:00 +11°C° 0 mm 1 mps 584 mmHg 73%
    20:00 +10°C° 0 mm 1 mps 584 mmHg 70%
    21:00 +10°C° 0 mm 1 mps 585 mmHg 67%
    22:00 +10°C° 0 mm 1 mps 585 mmHg 66%
    23:00 +10°C° 0 mm 1 mps 584 mmHg 66%

    23 November, Friday

    Time Temperature Precipitation Wind Pressure Humidity
    00:00 +10°C° 0 mm 1 mps 584 mmHg 65%
    01:00 +9°C° 0 mm 1 mps 584 mmHg 65%
    02:00 +9°C° 0 mm 1 mps 583 mmHg 65%
    03:00 +9°C° 0 mm 1 mps 583 mmHg 65%
    04:00 +9°C° 0 mm 1 mps 583 mmHg 64%
    05:00 +9°C° 0 mm 1 mps 583 mmHg 64%
    06:00 +8°C° 0 mm 1 mps 583 mmHg 63%
    07:00 +10°C° 0 mm 2 mps 585 mmHg 56%
    08:00 +13°C° 0 mm 2 mps 586 mmHg 48%
    09:00 +16°C° 0 mm 2 mps 587 mmHg 41%
    10:00 +17°C° 0 mm 2 mps 587 mmHg 38%
    11:00 +18°C° 0 mm 3 mps 587 mmHg 35%
    12:00 +19°C° 0 mm 3 mps 587 mmHg 33%
    13:00 +18°C° 0 mm 3 mps 586 mmHg 35%
    14:00 +18°C° 0 mm 2 mps 585 mmHg 37%
    15:00 +18°C° 0 mm 2 mps 585 mmHg 39%
    16:00 +15°C° 0 mm 2 mps 584 mmHg 50%
    17:00 +12°C° 0 mm 2 mps 583 mmHg 60%
    18:00 +10°C° 0 mm 1 mps 582 mmHg 71%
    19:00 +9°C° 0 mm 2 mps 583 mmHg 64%
    20:00 +9°C° 0 mm 2 mps 584 mmHg 57%
    21:00 +9°C° 0 mm 2 mps 584 mmHg 50%
    22:00 +9°C° 0 mm 2 mps 584 mmHg 44%
    23:00 +8°C° 0 mm 3 mps 584 mmHg 39%

    24 November, Saturday

    Time Temperature Precipitation Wind Pressure Humidity
    00:00 +8°C° 0 mm 3 mps 584 mmHg 34%
    01:00 +8°C° 0 mm 3 mps 584 mmHg 31%
    02:00 +8°C° 0 mm 3 mps 584 mmHg 29%
    03:00 +8°C° 0 mm 3 mps 583 mmHg 27%
    04:00 +8°C° 0 mm 3 mps 584 mmHg 26%
    05:00 +7°C° 0 mm 3 mps 584 mmHg 25%
    06:00 +7°C° 0 mm 3 mps 584 mmHg 24%
    07:00 +10°C° 0 mm 3 mps 586 mmHg 22%
    08:00 +14°C° 0 mm 2 mps 588 mmHg 19%
    09:00 +17°C° 0 mm 2 mps 589 mmHg 17%
    10:00 +18°C° 0 mm 2 mps 589 mmHg 16%
    11:00 +19°C° 0 mm 2 mps 589 mmHg 16%
    12:00 +20°C° 0 mm 3 mps 589 mmHg 16%
    13:00 +20°C° 0 mm 2 mps 588 mmHg 20%
    14:00 +19°C° 0 mm 2 mps 588 mmHg 24%
    15:00 +19°C° 0 mm 2 mps 587 mmHg 27%
    16:00 +16°C° 0 mm 2 mps 586 mmHg 39%
    17:00 +13°C° 0 mm 2 mps 585 mmHg 50%
    18:00 +10°C° 0 mm 1 mps 584 mmHg 62%
    19:00 +9°C° 0 mm 2 mps 585 mmHg 56%
    20:00 +9°C° 0 mm 2 mps 585 mmHg 50%
    21:00 +9°C° 0 mm 2 mps 585 mmHg 45%
    22:00 +9°C° 0 mm 2 mps 585 mmHg 42%
    23:00 +9°C° 0 mm 2 mps 585 mmHg 38%
    Show more